www.pogodaiklimat.ru

Погода и климат >> Архив погоды >> Россия >> Сахалинская область >> Оха


ПОГОДА в Оха

  • Прогноз погоды в Оха
  • Монитор погоды в Оха
  • Климат города

АРХИВ ПОГОДЫ в Оха

Время (UTC), дата Ветер
(напр.,м/с)
 
Видим.   Явления Облачность Т
(С)
Тd
(С)
f
(%)
Тe
(С)
Тes
(С)
Комфортность P
(гПа)
Po
(гПа)
Тmin
(С)
Tmax
(С)
R
(мм)
S
(см)
12 17.02 СЗ 4-6
{9}
2000 м слабый ливневой снег 10/10 120 м
[Cb cap]
-8.7 -9.7 92 -16 -16 999.8 994.9
18 17.02 С 6-10
{12}
4000 м слабый ливневой снег 9/9 210 м
[Cb cap]
-6.6 -8.6 86 -15 -15 999.0 994.1
00 18.02 СЗ 8-12
{14}
1000 м ливневой снег {метель} 10/10 120 м
[Cb cap]
-8.6 -10.0 90 -18 -18 998.8 993.9
06 18.02 СЗ 9-15
{16}
1000 м ливневой снег {метель} 10/10 100 м
[Cb cap]
-11.0 -12.6 88 -21 -21 1000.0 995.1
12 18.02 СЗ 10-15
{18}
2000 м слабый ливневой снег {метель} 10/10 150 м
[Cb cap]
-14.7 -16.4 87 -27 -27 1003.9 998.9
18 18.02 СЗ 9-14
{16}
20 км позёмок {ливн. осадки, метель} 5/5 330 м
[Cb cap]
-16.8 -19.7 78 -29 -29 1005.3 1000.2
00 19.02 СЗ 7-11
{15}
20 км позёмок {метель} 10/0
[Ac trans Cs]
-17.5 -21.1 73 -28 -28 1005.6 1000.5 -17.8
06 19.02 СЗ 7-15
{16}
20 км позёмок {метель} 8/3 300 м
[Cb cap Ci sp]
-16.2 -19.8 74 -27 -27 1004.5 999.5
12 19.02 СЗ 6-10
{12}
20 км позёмок {метель} 10/0
[Ac trans Cs]
-17.2 -20.5 75 -27 -27 1004.7 999.7
18 19.02 З 5-9
{11}
20 км {метель} 8/0
[Ac trans Ci sp]
-17.2 -20.3 77 -27 -27 1003.5 998.4
00 20.02 СЗ 8-12
{14}
20 км 10/0
[Cs]
-15.8 -19.8 71 -27 -27 1003.4 998.3 -17.6
06 20.02 СЗ 8-14
{16}
1000 м ливневой снег {метель} 10/10 150 м
[Cb cap]
-14.0 -16.3 83 -25 -25 1002.9 997.9
12 20.02 СЗ 6-11
{13}
1000 м ливневой снег {метель} 10/10 120 м
[Cb cap]
-13.6 -15.4 86 -23 -23 1004.3 999.3
18 20.02 СЗ 7-12
{14}
2000 м слабый ливневой снег {метель} 10/10 120 м
[Cb cap]
-11.8 -13.4 88 -21 -21 1005.0 1000.0
00 21.02 СЗ 8-13
{14}
4000 м слабый ливневой снег {метель} 9/6 330 м
[Cb cap Ac trans]
-11.3 -13.4 84 -21 -21 1008.2 1003.2
06 21.02 СЗ 7-12
{15}
20 км позёмок {ливн. осадки, метель} 6/3 300 м
[Cb cap Ci sp]
-11.8 -15.9 72 -21 -21 1010.7 1005.7
12 21.02 З 4-6
{9}
20 км {метель} 6/0
[Ac trans Ci sp]
-15.8 -18.7 78 -24 -24 1013.2 1008.1
18 21.02 СЗ 1-2
{7}
20 км ясно -20.8 -23.3 80 -24 -24 1013.1 1007.9
00 22.02 СЗ 3-5
{7}
20 км ясно -17.3 -21.5 70 -24 -22 1013.2 1008.1
06 22.02 З 5-8
{10}
20 км ясно -13.3 -19.1 62 -22 -21 1011.3 1006.2
12 22.02 З 1-2
{5}
20 км ясно -21.7 -23.5 85 -25 -25 1011.0 1005.8
18 22.02 СЗ 1-2
{3}
20 км ясно -26.7 -29.4 78 -30 -30 1009.9 1004.6
00 23.02 З 4-5
{5}
20 км 4/0
[Ci fib]
-19.3 -22.7 74 -28 -26 1008.2 1003.1
03 23.02 З 4-5
{5}
20 км 4/0
[Ci fib]
-19.3 -22.7 74 -28 -25 1008.2 1003.1
06 23.02 СЗ 4-7
{8}
20 км ясно -14.4 -23.1 48 -22 -21 1006.1 1001.1
12 23.02 штиль 0
{3}
20 км ясно -24.0 -26.5 80 -24 -24 1006.8 1001.6
18 23.02 ЮВ 1-1
{4}
20 км ясно -29.5 -32.8 73 -34 -34 опасность
обморожения
1005.4 1000.1
00 24.02 З 5-7
{7}
20 км ясно -18.1 -25.0 55 -28 -26 1005.0 999.9

 

Местоположение метеостанции Оха (Сахалинская область, Россия): широта 53.50 долгота 142.90 высота над уровнем моря 37 м.

В архиве по умолчанию представлена погода в Оха за последнюю неделю. Архивные данные за месяц целиком и за предыдущие месяцы, начиная с января 2011 года, Вы можете получить, выбрав интересующий диапазон дат из раскрывающегося списка и нажав кнопку "Ввод!".

Внимание! Время в таблицах - всемирное. Для получения местного времени необходимо прибавить поправку, которая в Оха равна 11 ч.

Смотрите также архив погоды в соседних городах и на ближайших метеорологических станциях:

Погода в Одопту (Сахалинская область, Россия) (23 км)
Погода в Москальво (Сахалинская область, Россия) (28 км)
Погода в Ныврово (Сахалинская область, Россия) (94 км)
Погода в Байдукове (Хабаровский край, Россия) (102 км)
Погода в Вал (Сахалинская область, Россия) (130 км)
Погода в Джаоре (Хабаровский край, Россия) (146 км)
Погода в Николаевск-на-Амуре (Хабаровский край, Россия) (151 км)
Погода в Погибях (Сахалинская область, Россия) (167 км)
Погода в Ногликах (Сахалинская область, Россия) (176 км)
Погода в Литке (Хабаровский край, Россия) (178 км)

Пояснения к столбцам:

Ветер - указаны скорость ветра в м/с - средняя за 10 мин, порывы в срок и между сроками (в фигурных скобках) и направление, откуда дует ветер: С - северный, СВ - северо-восточный, В - восточный, ЮВ - юго-восточный, Ю - южный, ЮЗ - юго-западный, З - западный, СЗ - северо-западный.
Видимость - горизонтальная дальность видимости в метрах или километрах. При видимости от 1 до 10 км при отсутствии осадков обычно наблюдается дымка, при ухудшении видимости до 1 км и менее - туман. В сухую погоду видимость может ухудшаться дымом, пылью или мглою.
Явления - указаны атмосферные явления, наблюдавшиеся в срок или в последний час перед сроком; фигурными скобками обозначены явления, наблюдавшиеся между сроками (за 1-3 часа до срока); квадратными скобками обозначены град или гололедные отложения с указанием их диаметра в мм.
Облачность - указаны через наклонную черту общая и нижняя облачность в баллах и высота нижней границы облаков в метрах; квадратными скобками обозначены формы облаков: Ci - перистые, Cs - перисто-слоистые, Cc - перисто-кучевые, Ac - высококучевые, As - высокослоистые, Sc - слоисто-кучевые, Ns - слоисто-дождевые, Cu - кучевые, Cb - кучево-дождевые. Подробнее классификацию облаков см. в Атласе облаков (PDF).
T - Температура воздуха - температура, измеренная на высоте 2 м над землей.
Td - Температура точки росы - температура, при понижении до которой содержащийся в воздухе водяной пар достигнет насыщения.
f - Относительная влажность воздуха - влажноcть воздуха, измеренная на высоте 2 м над землей.
Te - Эффективная температура - температура, которую ощущает одетый по сезону человек в тени. Характеристика душности погоды. При расчете учитывается влияние влажности воздуха и скорости ветра на теплоощущения человека.
Tes - Эффективная температура на солнце - температура, которую ощущает человек, с поправкой на солнечный нагрев. Характеристика знойности погоды. Зависит от высоты солнца над горизонтом, облачности и скорости ветра. Ночью, в пасмурную погоду, а также при ветре 12 м/с и более поправка равна нулю.
P - Атмосферное давление - приведенное к уровню моря атмосферное давление.
Po - Атмосферное давление - измеренное на уровне метеостанции атмосферное давление.
Tmin - Минимальная температура - минимум температуры воздуха на высоте 2 м над землей.
Tmax - Максимальная температура - максимум температуры воздуха на высоте 2 м над землей.
R - Количество осадков - Количество выпавших осадков, мм. При наведении курсора мыши на число - период времени, за который выпало указанное количество осадков.
S - Снежный покров - Высота снежного покрова, см. При наведении курсора мыши на число - состояние снежного покрова и степень покрытия местности в баллах.